www.pogodaiklimat.ru

Погода и климат >> Архив погоды >> Россия >> Свердловская область >> Бурмантово


ПОГОДА в Бурмантово

  • Прогноз погоды в Бурмантово
  • Монитор погоды в Бурмантово

АРХИВ ПОГОДЫ в Бурмантово

Время (UTC), дата Ветер
(напр.,м/с)
 
Видим.   Явления Облачность Т
(С)
Тd
(С)
f
(%)
Тe
(С)
Тes
(С)
Комфортность P
(гПа)
Po
(гПа)
Тmin
(С)
Tmax
(С)
R
(мм)
R24
(мм)
S
(см)
21 12.07 штиль 0 10 км 10/10 600 м
[Sc]
+13.2 +12.9 98 +13 +13 1014.5 999.3
00 13.07 штиль 0 50 м туман 4/0
[]
+11.6 +11.3 98 +11 +11 1014.7 999.4
03 13.07 штиль 0 2000 м слаб. дождь {туман} 10/10 300 м
[Frnb Ns]
+13.3 +13.0 98 +13 +13 1014.6 999.4 +10.1 0.8
06 13.07 СВ 1 2000 м слаб. дождь {туман} 10/10 300 м
[Frnb Ns]
+14.1 +13.8 98 +14 +14 1012.8 997.7
09 13.07 В 1 50 км {дождь} 10/8 600 м
[Cu Sc Ci fib]
+20.1 +17.5 85 +24 +27 комфорт 1009.0 994.2
12 13.07 СЗ 2 50 км {дождь} 10/5 600 м
[Cu Sc Ac trans Ci sp]
+23.1 +19.3 79 +29 +31 очень
душно
1005.4 990.8
15 13.07 штиль 0 50 км 10/4 600 м
[Sc Ac cast Ci sp]
+21.9 +18.5 81 +27 +27 душно 1005.8 991.2 +24.4 7
18 13.07 штиль 0
{18}
2000 м дымка {гроза, ливн. осадки} 8/4 600 м
[Sc diur, vesp Ac trans]
+17.6 +17.2 98 +18 +18 1006.7 991.8
21 13.07 штиль 0 10 км дымка 9/6 300 м
[Cb cap Ac trans]
+15.9 +15.8 99 +16 +16 1006.5 991.5
00 14.07 ЮЗ 1 4000 м дымка {ливн. осадки} 10/8 300 м
[Cb cap Ac As]
+15.7 +15.4 98 +16 +16 1008.1 993.1
03 14.07 Ю 1 50 км {ливн. осадки} 8/8
[Sc]
+19.2 +18.8 98 +22 +23 комфорт 1007.9 993.1 +15.0 12
06 14.07 СЗ 1 50 км {ливн. осадки} 10/10 600 м
[Sc]
+23.4 +20.5 84 +31 +31 очень
душно
1007.1 992.6
09 14.07 Ю 2 50 км 8/4 600 м
[Cu Sc Ci fib]
+28.0 +19.3 59 +34 +40 очень
душно
1005.2 990.8
12 14.07 Ю 4 50 км гроза без осадков 9/6 300 м
[Cb calv Ac trans Ci ing]
+28.6 +17.2 50 +33 +34 очень
душно
1004.6 990.3
15 14.07 штиль 0 50 км {гроза} 10/10 300 м
[Cb cap]
+23.1 +21.8 92 +31 +31 очень
душно
1004.4 989.9 +29.6
18 14.07 штиль 0
{15}
20 км местами туман поземный {гроза, ливн. осадки} 10/10 300 м
[Cb cap]
+18.8 +18.3 97 +20 +20 1006.9 991.9
21 14.07 штиль 0 2000 м дымка {гроза} 10/10 300 м
[Cb cap]
+17.2 +16.9 98 +17 +17 1007.9 992.7
00 15.07 штиль 0 20 км слаб. ливневой дождь {гроза} 10/8 300 м
[Cb cap Ci sp]
+15.9 +15.4 97 +16 +16 1009.1 993.8
03 15.07 З 1 50 км {ливн. осадки} 9/4 600 м
[Sc Ac trans Ci ing]
+17.9 +14.4 80 +19 +21 1010.1 995.0 +14.9 10
06 15.07 штиль 0 20 км слаб. ливневой дождь 10/8 300 м
[Cb cap Ci fib]
+18.9 +17.1 89 +20 +23 1010.3 995.2
09 15.07 СЗ 1 50 км {ливн. осадки} 10/5 300 м
[Cu Sc Ac trans Ci ing]
+20.8 +17.4 81 +26 +29 душно 1009.7 994.7
12 15.07 С 2 50 км {ливн. осадки} 10/6 600 м
[Cu Sc Ac trans Ci fib]
+23.5 +19.6 79 +29 +30 душно 1008.4 993.5
15 15.07 СЗ 1 50 км 10/5 600 м
[Sc diur, vesp Ac trans Ci sp]
+20.7 +18.3 86 +26 +26 душно 1007.6 992.6 +24.0 0.0
18 15.07 С 1 20 км 10/3 600 м
[Sc Ac As]
+18.6 +17.0 90 +21 +21 комфорт 1006.0 991.0
21 15.07 штиль 0 10 км 10/8 600 м
[Sc Ac trans]
+17.1 +16.8 98 +17 +17 1004.2 989.2
00 16.07 СЗ 1 50 км 10/10 300 м
[Cb cap]
+17.5 +14.6 83 +19 +19 1001.9 986.8
03 16.07 С 1 50 км в посл. час ливневой дождь 10/8 300 м
[Cb cap Ci ing]
+19.6 +18.3 92 +23 +24 комфорт 1000.4 985.4 +15.5 0.0
06 16.07 В 2 50 км в посл. час ливневой дождь 10/8 300 м
[Cb cap Ci ing]
+22.6 +18.8 79 +28 +30 душно 998.7 983.9
09 16.07 ЮВ 4 50 км 10/6 600 м
[Cu Sc Ci ing]
+24.6 +17.4 64 +29 +31 душно 998.8 984.2
12 16.07 ЮВ 5 50 км 8/5 600 м
[Cu med, cong Ci fib]
+26.2 +16.5 55 +30 +31 душно 999.1 984.6
15 16.07 штиль 0 50 км 10/6 300 м
[Cb calv Ci ing]
+24.5 +16.6 61 +28 +28 душно 999.2 984.6 +29.1 0.0
21 16.07 З 6
{10}
10 км 8/6 600 м
[Sc Ac trans]
+15.5 +9.3 67 +14 +14 1002.3 987.2
03 17.07 СЗ 4 50 км 10/8 300 м
[Sc Ac trans]
+13.7 +10.7 82 +12 +12 1004.8 989.6 +12.5
09 17.07 СЗ 4 20 км слаб. дождь 10/0 300 м
[As op]
+13.0 +11.1 88 +11 +13 1006.7 991.4
12 17.07 СЗ 5 50 км в посл. час дождь 10/10 600 м
[Sc]
+13.1 +11.4 89 +11 +11 1008.0 992.6
15 17.07 З 5 50 км 10/10 300 м
[Cb cap]
+13.6 +11.0 84 +12 +12 1009.1 993.8 +14.3 2
18 17.07 З 5 10 км {гроза} 10/10 300 м
[Cb cap]
+13.7 +10.5 81 +12 +12 1009.3 993.9
21 17.07 штиль 0 4000 м слаб. ливневой дождь 10/10 300 м
[Cb cap]
+12.1 +11.5 96 +11 +11 1009.4 994.0
00 18.07 З 1 50 км {ливн. осадки} 10/10 300 м
[Cb cap]
+1.2 +10.7 100 -1 -1 1008.9 993.6
03 18.07 З 1 20 км слаб. ливневой дождь 10/10 300 м
[Cb cap]
+12.0 +11.4 96 +12 +12 1008.1 992.7 +11.9 8
09 18.07 З 3 50 км 10/10 300 м
[Cb cap]
+15.2 +11.9 81 +15 +15 1008.4 993.1
12 18.07 З 4 50 км {ливн. осадки} 9/9 300 м
[Cb cap]
+15.1 +10.6 74 +14 +14 1009.1 993.8
15 18.07 З 5 50 км 9/9 300 м
[Cb cap]
+13.6 +9.3 75 +12 +12 1009.5 994.2 +16.0 0.0
21 18.07 штиль 0 10 км 6/5 600 м
[Sc diur, vesp Ci fib]
+9.9 +9.1 95 +9 +9 1011.2 995.8
03 19.07 З 1 50 км 8/4 600 м
[Sc Ci fib]
+13.1 +11.0 87 +13 +16 1010.7 995.2 +8.3
09 19.07 З 2 50 км 9/9 600 м
[Sc]
+17.1 +10.9 67 +17 +19 1011.8 996.6
15 19.07 С 2 50 км 1/0
[Ci fib]
+17.2 +14.1 82 +18 +18 1012.0 996.8 +19.7

 

Местоположение метеостанции Бурмантово (Свердловская область, Россия): широта 61.28 долгота 60.47 высота над уровнем моря 128 м.

В архиве по умолчанию представлена погода в Бурмантово за последнюю неделю. Архивные данные за месяц целиком и за предыдущие месяцы, начиная с января 2011 года, Вы можете получить, выбрав интересующий диапазон дат из раскрывающегося списка и нажав кнопку "Ввод!".


*Определитесь, кто Вы:
робот инопланетянин человек

Внимание! Время в таблицах - всемирное. Для получения местного времени необходимо прибавить поправку, которая равна 5 ч.

Смотрите также архив погоды в соседних городах и на ближайших метеорологических станциях:

Погода в Ивделе (Свердловская область, Россия) (67 км)
Погода в Атымье (Свердловская область, Россия) (98 км)
Погода в Североуральске (Свердловская область, Россия) (120 км)
Погода в Няксимволе (Ханты-Мансийский АО, Россия) (130 км)
Погода в Агирише (Ханты-Мансийский АО, Россия) (153 км)
Погода в Югорске (Ханты-Мансийский АО, Россия) (155 км)
Погода в Карпинске (Свердловская область, Россия) (172 км)
Погода в Серове (Свердловская область, Россия) (187 км)
Погода в Якше (Коми, Россия) (200 км)
Погода в Кытлыме (Свердловская область, Россия) (210 км)

Пояснения к столбцам:

Ветер - указаны скорость ветра в м/с - средняя за 10 мин, порывы в срок и между сроками (в фигурных скобках) и направление, откуда дует ветер: С - северный, СВ - северо-восточный, В - восточный, ЮВ - юго-восточный, Ю - южный, ЮЗ - юго-западный, З - западный, СЗ - северо-западный.
Видимость - горизонтальная дальность видимости в метрах или километрах. При видимости от 1 до 10 км при отсутствии осадков обычно наблюдается дымка, при ухудшении видимости до 1 км и менее - туман. В сухую погоду видимость может ухудшаться дымом, пылью или мглою.
Явления - указаны атмосферные явления, наблюдавшиеся в срок или в последний час перед сроком; фигурными скобками обозначены явления, наблюдавшиеся между сроками (за 1-3 часа до срока); квадратными скобками обозначены град или гололедные отложения с указанием их диаметра в мм.
Облачность - указаны через наклонную черту общая и нижняя облачность в баллах и высота нижней границы облаков в метрах; квадратными скобками обозначены формы облаков: Ci - перистые, Cs - перисто-слоистые, Cc - перисто-кучевые, Ac - высококучевые, As - высокослоистые, Sc - слоисто-кучевые, Ns - слоисто-дождевые, Cu - кучевые, Cb - кучево-дождевые. Подробнее классификацию облаков см. в Атласе облаков (PDF).
T - Температура воздуха - температура, измеренная на высоте 2 м над землей.
Td - Температура точки росы - температура, при понижении до которой содержащийся в воздухе водяной пар достигнет насыщения.
f - Относительная влажность воздуха - влажноcть воздуха, измеренная на высоте 2 м над землей.
Te - Эффективная температура - температура, которую ощущает одетый по сезону человек в тени. Характеристика душности погоды. При расчете учитывается влияние влажности воздуха и скорости ветра на теплоощущения человека.
Tes - Эффективная температура на солнце - температура, которую ощущает человек, с поправкой на солнечный нагрев. Характеристика знойности погоды. Зависит от высоты солнца над горизонтом, облачности и скорости ветра. Ночью, в пасмурную погоду, а также при ветре 12 м/с и более поправка равна нулю.
P - Атмосферное давление - приведенное к уровню моря атмосферное давление.
Po - Атмосферное давление - измеренное на уровне метеостанции атмосферное давление.
Tmin - Минимальная температура - минимум температуры воздуха на высоте 2 м над землей.
Tmax - Максимальная температура - максимум температуры воздуха на высоте 2 м над землей.
R - Количество осадков - Количество выпавших осадков за период времени, мм. При наведении курсора мыши на число - период времени, за который выпало указанное количество осадков.
R24 - Количество осадков - Количество выпавших осадков за 24 часа, мм.
S - Снежный покров - Высота снежного покрова, см. При наведении курсора мыши на число - состояние снежного покрова и степень покрытия местности в баллах.